owner,sensor,date,latitude,longitude,vertical_datum,sea_water_practical_salinity,qcFlag 
TABS,ioos:station:wmo:42051:1,2011-11-01T00:00:00Z,29.6350,-93.6417,2.0,28.8647,11111222 
TABS,ioos:station:wmo:42051:1,2011-11-01T00:30:00Z,29.6350,-93.6417,2.0,28.8702,11111222 
TABS,ioos:station:wmo:42051:1,2011-11-01T01:00:00Z,29.6350,-93.6417,2.0,28.8717,11111222 
TABS,ioos:station:wmo:42051:1,2011-11-01T01:30:00Z,29.6350,-93.6417,2.0,28.8755,11111222 
TABS,ioos:station:wmo:42051:1,2011-11-01T02:00:00Z,29.6350,-93.6417,2.0,28.8793,11111222 
TABS,ioos:station:wmo:42051:1,2011-11-01T02:30:00Z,29.6350,-93.6417,2.0,28.8827,11111222 
TABS,ioos:station:wmo:42051:1,2011-11-01T03:00:00Z,29.6350,-93.6417,2.0,28.8799,11111222 
TABS,ioos:station:wmo:42051:1,2011-11-01T03:30:00Z,29.6350,-93.6417,2.0,28.8845,11111222 
TABS,ioos:station:wmo:42051:1,2011-11-01T04:00:00Z,29.6350,-93.6417,2.0,28.8865,11111222 
TABS,ioos:station:wmo:42051:1,2011-11-01T04:30:00Z,29.6350,-93.6417,2.0,28.8886,11111222 
TABS,ioos:station:wmo:42051:1,2011-11-01T05:00:00Z,29.6350,-93.6417,2.0,28.8847,11111222 
TABS,ioos:station:wmo:42051:1,2011-11-01T05:30:00Z,29.6350,-93.6417,2.0,28.905,11111222 
TABS,ioos:station:wmo:42051:1,2011-11-01T06:00:00Z,29.6350,-93.6417,2.0,28.9427,11111222 
TABS,ioos:station:wmo:42051:1,2011-11-01T06:30:00Z,29.6350,-93.6417,2.0,28.9738,11111222 
TABS,ioos:station:wmo:42051:1,2011-11-01T07:00:00Z,29.6350,-93.6417,2.0,28.9944,11111222 
TABS,ioos:station:wmo:42051:1,2011-11-01T07:30:00Z,29.6350,-93.6417,2.0,28.9945,11111222 
TABS,ioos:station:wmo:42051:1,2011-11-01T08:00:00Z,29.6350,-93.6417,2.0,28.9891,11111222 
TABS,ioos:station:wmo:42051:1,2011-11-01T08:30:00Z,29.6350,-93.6417,2.0,28.9813,11111222 
TABS,ioos:station:wmo:42051:1,2011-11-01T09:00:00Z,29.6350,-93.6417,2.0,28.9833,11111222 
TABS,ioos:station:wmo:42051:1,2011-11-01T09:30:00Z,29.6350,-93.6417,2.0,28.9809,11111222 
TABS,ioos:station:wmo:42051:1,2011-11-01T10:00:00Z,29.6350,-93.6417,2.0,28.9594,11111222 
TABS,ioos:station:wmo:42051:1,2011-11-01T10:30:00Z,29.6350,-93.6417,2.0,28.9534,11111222 
TABS,ioos:station:wmo:42051:1,2011-11-01T11:00:00Z,29.6350,-93.6417,2.0,28.9597,11111222 
TABS,ioos:station:wmo:42051:1,2011-11-01T11:30:00Z,29.6350,-93.6417,2.0,28.9439,11111222 
TABS,ioos:station:wmo:42051:1,2011-11-01T12:00:00Z,29.6350,-93.6417,2.0,28.9369,11111222 
TABS,ioos:station:wmo:42051:1,2011-11-01T12:30:00Z,29.6350,-93.6417,2.0,28.9466,11111222 
TABS,ioos:station:wmo:42051:1,2011-11-01T13:00:00Z,29.6350,-93.6417,2.0,28.942,11111222 
TABS,ioos:station:wmo:42051:1,2011-11-01T13:30:00Z,29.6350,-93.6417,2.0,28.9617,11111222 
TABS,ioos:station:wmo:42051:1,2011-11-01T14:00:00Z,29.6350,-93.6417,2.0,28.9693,11111222 
TABS,ioos:station:wmo:42051:1,2011-11-01T14:30:00Z,29.6350,-93.6417,2.0,28.9773,11111222 
TABS,ioos:station:wmo:42051:1,2011-11-01T15:00:00Z,29.6350,-93.6417,2.0,28.993,11111222 
TABS,ioos:station:wmo:42051:1,2011-11-01T15:30:00Z,29.6350,-93.6417,2.0,28.9999,11111222 
TABS,ioos:station:wmo:42051:1,2011-11-01T16:00:00Z,29.6350,-93.6417,2.0,29.0088,11111222 
TABS,ioos:station:wmo:42051:1,2011-11-01T16:30:00Z,29.6350,-93.6417,2.0,29.0221,11111222 
TABS,ioos:station:wmo:42051:1,2011-11-01T17:00:00Z,29.6350,-93.6417,2.0,29.0368,11111222 
TABS,ioos:station:wmo:42051:1,2011-11-01T17:30:00Z,29.6350,-93.6417,2.0,29.0534,11111222 
TABS,ioos:station:wmo:42051:1,2011-11-01T18:00:00Z,29.6350,-93.6417,2.0,29.0562,11111222 
TABS,ioos:station:wmo:42051:1,2011-11-01T18:30:00Z,29.6350,-93.6417,2.0,29.053,11111222 
TABS,ioos:station:wmo:42051:1,2011-11-01T19:00:00Z,29.6350,-93.6417,2.0,29.0477,11111222 
TABS,ioos:station:wmo:42051:1,2011-11-01T19:30:00Z,29.6350,-93.6417,2.0,29.0444,11111222 
TABS,ioos:station:wmo:42051:1,2011-11-01T20:00:00Z,29.6350,-93.6417,2.0,29.037,11111222 
TABS,ioos:station:wmo:42051:1,2011-11-01T20:30:00Z,29.6350,-93.6417,2.0,29.0317,11111222 
TABS,ioos:station:wmo:42051:1,2011-11-01T21:00:00Z,29.6350,-93.6417,2.0,29.0318,11111222 
TABS,ioos:station:wmo:42051:1,2011-11-01T21:30:00Z,29.6350,-93.6417,2.0,29.0351,11111222 
TABS,ioos:station:wmo:42051:1,2011-11-01T22:00:00Z,29.6350,-93.6417,2.0,29.0335,11111222 
TABS,ioos:station:wmo:42051:1,2011-11-01T22:30:00Z,29.6350,-93.6417,2.0,29.053,11111222 
TABS,ioos:station:wmo:42051:1,2011-11-01T23:00:00Z,29.6350,-93.6417,2.0,29.074,11111222 
TABS,ioos:station:wmo:42051:1,2011-11-01T23:30:00Z,29.6350,-93.6417,2.0,29.0999,11111222 
TABS,ioos:station:wmo:42051:1,2011-11-02T00:00:00Z,29.6350,-93.6417,2.0,29.099,11111222 
TABS,ioos:station:wmo:42051:1,2011-11-02T00:30:00Z,29.6350,-93.6417,2.0,29.1008,11111222 
TABS,ioos:station:wmo:42051:1,2011-11-02T01:00:00Z,29.6350,-93.6417,2.0,29.0974,11111222 
TABS,ioos:station:wmo:42051:1,2011-11-02T01:30:00Z,29.6350,-93.6417,2.0,29.1008,11111222 
TABS,ioos:station:wmo:42051:1,2011-11-02T02:00:00Z,29.6350,-93.6417,2.0,29.0883,11111222 
TABS,ioos:station:wmo:42051:1,2011-11-02T02:30:00Z,29.6350,-93.6417,2.0,29.0866,11111222 
TABS,ioos:station:wmo:42051:1,2011-11-02T03:00:00Z,29.6350,-93.6417,2.0,29.0821,11111222 
TABS,ioos:station:wmo:42051:1,2011-11-02T03:30:00Z,29.6350,-93.6417,2.0,29.0754,11111222 
TABS,ioos:station:wmo:42051:1,2011-11-02T04:00:00Z,29.6350,-93.6417,2.0,29.0657,11111222 
TABS,ioos:station:wmo:42051:1,2011-11-02T04:30:00Z,29.6350,-93.6417,2.0,29.0548,11111222 
TABS,ioos:station:wmo:42051:1,2011-11-02T05:00:00Z,29.6350,-93.6417,2.0,29.044,11111222 
TABS,ioos:station:wmo:42051:1,2011-11-02T05:30:00Z,29.6350,-93.6417,2.0,29.0367,11111222 
TABS,ioos:station:wmo:42051:1,2011-11-02T06:00:00Z,29.6350,-93.6417,2.0,29.0271,11111222 
TABS,ioos:station:wmo:42051:1,2011-11-02T06:30:00Z,29.6350,-93.6417,2.0,29.0136,11111222 
TABS,ioos:station:wmo:42051:1,2011-11-02T07:00:00Z,29.6350,-93.6417,2.0,29.0073,11111222 
TABS,ioos:station:wmo:42051:1,2011-11-02T07:30:00Z,29.6350,-93.6417,2.0,29.0006,11111222 
TABS,ioos:station:wmo:42051:1,2011-11-02T08:00:00Z,29.6350,-93.6417,2.0,28.9937,11111222 
TABS,ioos:station:wmo:42051:1,2011-11-02T08:30:00Z,29.6350,-93.6417,2.0,28.9858,11111222 
TABS,ioos:station:wmo:42051:1,2011-11-02T09:00:00Z,29.6350,-93.6417,2.0,28.9823,11111222 
TABS,ioos:station:wmo:42051:1,2011-11-02T09:30:00Z,29.6350,-93.6417,2.0,28.9772,11111222 
TABS,ioos:station:wmo:42051:1,2011-11-02T10:00:00Z,29.6350,-93.6417,2.0,28.9738,11111222 
TABS,ioos:station:wmo:42051:1,2011-11-02T10:30:00Z,29.6350,-93.6417,2.0,28.9704,11111222 
TABS,ioos:station:wmo:42051:1,2011-11-02T11:00:00Z,29.6350,-93.6417,2.0,28.9662,11111222 
TABS,ioos:station:wmo:42051:1,2011-11-02T11:30:00Z,29.6350,-93.6417,2.0,28.9655,11111222 
TABS,ioos:station:wmo:42051:1,2011-11-02T12:00:00Z,29.6350,-93.6417,2.0,28.9639,11111222 
TABS,ioos:station:wmo:42051:1,2011-11-02T12:30:00Z,29.6350,-93.6417,2.0,28.964,11111222 
TABS,ioos:station:wmo:42051:1,2011-11-02T13:00:00Z,29.6350,-93.6417,2.0,28.9634,11111222 
TABS,ioos:station:wmo:42051:1,2011-11-02T13:30:00Z,29.6350,-93.6417,2.0,28.96,11111222 
TABS,ioos:station:wmo:42051:1,2011-11-02T14:00:00Z,29.6350,-93.6417,2.0,28.9505,11111222 
TABS,ioos:station:wmo:42051:1,2011-11-02T14:30:00Z,29.6350,-93.6417,2.0,28.9436,11111222 
TABS,ioos:station:wmo:42051:1,2011-11-02T15:00:00Z,29.6350,-93.6417,2.0,28.9412,11111222 
TABS,ioos:station:wmo:42051:1,2011-11-02T15:30:00Z,29.6350,-93.6417,2.0,28.9347,11111222 
TABS,ioos:station:wmo:42051:1,2011-11-02T16:00:00Z,29.6350,-93.6417,2.0,28.9278,11111222 
TABS,ioos:station:wmo:42051:1,2011-11-02T16:30:00Z,29.6350,-93.6417,2.0,28.9251,11111222 
TABS,ioos:station:wmo:42051:1,2011-11-02T17:00:00Z,29.6350,-93.6417,2.0,28.9222,11111222 
TABS,ioos:station:wmo:42051:1,2011-11-02T17:30:00Z,29.6350,-93.6417,2.0,28.9214,11111222 
TABS,ioos:station:wmo:42051:1,2011-11-02T18:00:00Z,29.6350,-93.6417,2.0,28.9136,11111222 
TABS,ioos:station:wmo:42051:1,2011-11-02T18:30:00Z,29.6350,-93.6417,2.0,28.9055,11111222 
TABS,ioos:station:wmo:42051:1,2011-11-02T19:00:00Z,29.6350,-93.6417,2.0,28.8781,11111222 
TABS,ioos:station:wmo:42051:1,2011-11-02T19:30:00Z,29.6350,-93.6417,2.0,28.8323,11111222 
TABS,ioos:station:wmo:42051:1,2011-11-02T20:00:00Z,29.6350,-93.6417,2.0,28.7688,11111222 
TABS,ioos:station:wmo:42051:1,2011-11-02T20:30:00Z,29.6350,-93.6417,2.0,28.7244,11111222 
TABS,ioos:station:wmo:42051:1,2011-11-02T21:00:00Z,29.6350,-93.6417,2.0,28.6887,11111222 
TABS,ioos:station:wmo:42051:1,2011-11-02T21:30:00Z,29.6350,-93.6417,2.0,28.5917,11111222 
TABS,ioos:station:wmo:42051:1,2011-11-02T22:00:00Z,29.6350,-93.6417,2.0,28.5335,11111222 
TABS,ioos:station:wmo:42051:1,2011-11-02T22:30:00Z,29.6350,-93.6417,2.0,28.508,11111222 
TABS,ioos:station:wmo:42051:1,2011-11-02T23:00:00Z,29.6350,-93.6417,2.0,28.5047,11111222 
TABS,ioos:station:wmo:42051:1,2011-11-02T23:30:00Z,29.6350,-93.6417,2.0,28.5336,11111222 
TABS,ioos:station:wmo:42051:1,2011-11-03T00:00:00Z,29.6350,-93.6417,2.0,28.6029,11111222 
TABS,ioos:station:wmo:42051:1,2011-11-03T00:30:00Z,29.6350,-93.6417,2.0,28.6088,11111222 
TABS,ioos:station:wmo:42051:1,2011-11-03T01:00:00Z,29.6350,-93.6417,2.0,28.7086,11111222 
TABS,ioos:station:wmo:42051:1,2011-11-03T01:30:00Z,29.6350,-93.6417,2.0,29.0335,11111222 
TABS,ioos:station:wmo:42051:1,2011-11-03T02:00:00Z,29.6350,-93.6417,2.0,29.1108,11111222 
TABS,ioos:station:wmo:42051:1,2011-11-03T02:30:00Z,29.6350,-93.6417,2.0,29.3257,11111222 
TABS,ioos:station:wmo:42051:1,2011-11-03T03:00:00Z,29.6350,-93.6417,2.0,29.3777,11111222 
TABS,ioos:station:wmo:42051:1,2011-11-03T03:30:00Z,29.6350,-93.6417,2.0,29.3837,11111222 
TABS,ioos:station:wmo:42051:1,2011-11-03T04:00:00Z,29.6350,-93.6417,2.0,29.3379,11111222 
TABS,ioos:station:wmo:42051:1,2011-11-03T04:30:00Z,29.6350,-93.6417,2.0,29.2705,11111222 
TABS,ioos:station:wmo:42051:1,2011-11-03T05:00:00Z,29.6350,-93.6417,2.0,29.2172,11111222 
TABS,ioos:station:wmo:42051:1,2011-11-03T05:30:00Z,29.6350,-93.6417,2.0,29.1995,11111222 
TABS,ioos:station:wmo:42051:1,2011-11-03T06:00:00Z,29.6350,-93.6417,2.0,29.1405,11111222 
TABS,ioos:station:wmo:42051:1,2011-11-03T06:30:00Z,29.6350,-93.6417,2.0,29.003,11111222 
TABS,ioos:station:wmo:42051:1,2011-11-03T07:00:00Z,29.6350,-93.6417,2.0,28.943,11111222 
TABS,ioos:station:wmo:42051:1,2011-11-03T07:30:00Z,29.6350,-93.6417,2.0,28.6933,11111222 
TABS,ioos:station:wmo:42051:1,2011-11-03T08:00:00Z,29.6350,-93.6417,2.0,28.5517,11111222 
TABS,ioos:station:wmo:42051:1,2011-11-03T08:30:00Z,29.6350,-93.6417,2.0,28.6977,11111222 
TABS,ioos:station:wmo:42051:1,2011-11-03T09:00:00Z,29.6350,-93.6417,2.0,28.6981,11111222 
TABS,ioos:station:wmo:42051:1,2011-11-03T09:30:00Z,29.6350,-93.6417,2.0,28.8236,11111222 
TABS,ioos:station:wmo:42051:1,2011-11-03T10:00:00Z,29.6350,-93.6417,2.0,28.8905,11111222 
TABS,ioos:station:wmo:42051:1,2011-11-03T10:30:00Z,29.6350,-93.6417,2.0,28.9651,11111222 
TABS,ioos:station:wmo:42051:1,2011-11-03T11:00:00Z,29.6350,-93.6417,2.0,29.1094,11111222 
TABS,ioos:station:wmo:42051:1,2011-11-03T11:30:00Z,29.6350,-93.6417,2.0,29.2143,11111222 
TABS,ioos:station:wmo:42051:1,2011-11-03T12:00:00Z,29.6350,-93.6417,2.0,29.2391,11111222 
TABS,ioos:station:wmo:42051:1,2011-11-03T12:30:00Z,29.6350,-93.6417,2.0,29.2926,11111222 
TABS,ioos:station:wmo:42051:1,2011-11-03T13:00:00Z,29.6350,-93.6417,2.0,29.2628,11111222 
TABS,ioos:station:wmo:42051:1,2011-11-03T13:30:00Z,29.6350,-93.6417,2.0,29.2536,11111222 
TABS,ioos:station:wmo:42051:1,2011-11-03T14:00:00Z,29.6350,-93.6417,2.0,29.2364,11111222 
TABS,ioos:station:wmo:42051:1,2011-11-03T14:30:00Z,29.6350,-93.6417,2.0,29.2096,11111222 
TABS,ioos:station:wmo:42051:1,2011-11-03T15:00:00Z,29.6350,-93.6417,2.0,29.1941,11111222 
TABS,ioos:station:wmo:42051:1,2011-11-03T15:30:00Z,29.6350,-93.6417,2.0,29.1961,11111222 
TABS,ioos:station:wmo:42051:1,2011-11-03T16:00:00Z,29.6350,-93.6417,2.0,29.2634,11111222 
TABS,ioos:station:wmo:42051:1,2011-11-03T16:30:00Z,29.6350,-93.6417,2.0,29.3137,11111222 
TABS,ioos:station:wmo:42051:1,2011-11-03T17:00:00Z,29.6350,-93.6417,2.0,29.317,11111222 
TABS,ioos:station:wmo:42051:1,2011-11-03T17:30:00Z,29.6350,-93.6417,2.0,29.3229,11111222 
TABS,ioos:station:wmo:42051:1,2011-11-03T18:00:00Z,29.6350,-93.6417,2.0,29.3347,11111222 
TABS,ioos:station:wmo:42051:1,2011-11-03T18:30:00Z,29.6350,-93.6417,2.0,29.3327,11111222 
TABS,ioos:station:wmo:42051:1,2011-11-03T19:00:00Z,29.6350,-93.6417,2.0,29.3261,11111222 
TABS,ioos:station:wmo:42051:1,2011-11-03T19:30:00Z,29.6350,-93.6417,2.0,29.3064,11111222 
TABS,ioos:station:wmo:42051:1,2011-11-03T20:00:00Z,29.6350,-93.6417,2.0,29.2897,11111222 
TABS,ioos:station:wmo:42051:1,2011-11-03T20:30:00Z,29.6350,-93.6417,2.0,29.3246,11111222 
TABS,ioos:station:wmo:42051:1,2011-11-03T21:00:00Z,29.6350,-93.6417,2.0,29.3347,11111222 
TABS,ioos:station:wmo:42051:1,2011-11-03T21:30:00Z,29.6350,-93.6417,2.0,29.343,11111222 
TABS,ioos:station:wmo:42051:1,2011-11-03T22:00:00Z,29.6350,-93.6417,2.0,29.3374,11111222 
TABS,ioos:station:wmo:42051:1,2011-11-03T22:30:00Z,29.6350,-93.6417,2.0,29.3479,11111222 
TABS,ioos:station:wmo:42051:1,2011-11-03T23:00:00Z,29.6350,-93.6417,2.0,29.3442,11111222 
TABS,ioos:station:wmo:42051:1,2011-11-03T23:30:00Z,29.6350,-93.6417,2.0,29.2802,11111222 
TABS,ioos:station:wmo:42051:1,2011-11-04T00:00:00Z,29.6350,-93.6417,2.0,29.2567,11111222 
TABS,ioos:station:wmo:42051:1,2011-11-04T00:30:00Z,29.6350,-93.6417,2.0,29.099,11111222 
TABS,ioos:station:wmo:42051:1,2011-11-04T01:00:00Z,29.6350,-93.6417,2.0,29.0815,11111222 
TABS,ioos:station:wmo:42051:1,2011-11-04T01:30:00Z,29.6350,-93.6417,2.0,29.0643,11111222 
TABS,ioos:station:wmo:42051:1,2011-11-04T02:00:00Z,29.6350,-93.6417,2.0,29.0931,11111222 
TABS,ioos:station:wmo:42051:1,2011-11-04T02:30:00Z,29.6350,-93.6417,2.0,29.1037,11111222 
TABS,ioos:station:wmo:42051:1,2011-11-04T03:00:00Z,29.6350,-93.6417,2.0,29.1233,11111222 
TABS,ioos:station:wmo:42051:1,2011-11-04T03:30:00Z,29.6350,-93.6417,2.0,29.1491,11111222 
TABS,ioos:station:wmo:42051:1,2011-11-04T04:00:00Z,29.6350,-93.6417,2.0,29.2217,11111222 
TABS,ioos:station:wmo:42051:1,2011-11-04T04:30:00Z,29.6350,-93.6417,2.0,29.2129,11111222 
TABS,ioos:station:wmo:42051:1,2011-11-04T05:00:00Z,29.6350,-93.6417,2.0,29.1312,11111222 
TABS,ioos:station:wmo:42051:1,2011-11-04T05:30:00Z,29.6350,-93.6417,2.0,29.1537,11111222 
TABS,ioos:station:wmo:42051:1,2011-11-04T06:00:00Z,29.6350,-93.6417,2.0,29.2245,11111222 
TABS,ioos:station:wmo:42051:1,2011-11-04T06:30:00Z,29.6350,-93.6417,2.0,29.2346,11111222 
TABS,ioos:station:wmo:42051:1,2011-11-04T07:00:00Z,29.6350,-93.6417,2.0,29.2356,11111222 
TABS,ioos:station:wmo:42051:1,2011-11-04T07:30:00Z,29.6350,-93.6417,2.0,29.2156,11111222 
TABS,ioos:station:wmo:42051:1,2011-11-04T08:00:00Z,29.6350,-93.6417,2.0,29.185,11111222 
TABS,ioos:station:wmo:42051:1,2011-11-04T08:30:00Z,29.6350,-93.6417,2.0,29.1545,11111222 
TABS,ioos:station:wmo:42051:1,2011-11-04T09:00:00Z,29.6350,-93.6417,2.0,29.124,11111222 
TABS,ioos:station:wmo:42051:1,2011-11-04T09:30:00Z,29.6350,-93.6417,2.0,29.076,11111222 
TABS,ioos:station:wmo:42051:1,2011-11-04T10:00:00Z,29.6350,-93.6417,2.0,29.0581,11111222 
TABS,ioos:station:wmo:42051:1,2011-11-04T10:30:00Z,29.6350,-93.6417,2.0,29.0365,11111222 
TABS,ioos:station:wmo:42051:1,2011-11-04T11:00:00Z,29.6350,-93.6417,2.0,29.0303,11111222 
TABS,ioos:station:wmo:42051:1,2011-11-04T11:30:00Z,29.6350,-93.6417,2.0,28.9398,11111222 
TABS,ioos:station:wmo:42051:1,2011-11-04T12:00:00Z,29.6350,-93.6417,2.0,28.8712,11111222 
TABS,ioos:station:wmo:42051:1,2011-11-04T12:30:00Z,29.6350,-93.6417,2.0,28.8121,11111222 
TABS,ioos:station:wmo:42051:1,2011-11-04T13:00:00Z,29.6350,-93.6417,2.0,28.7518,11111222 
TABS,ioos:station:wmo:42051:1,2011-11-04T13:30:00Z,29.6350,-93.6417,2.0,28.7465,11111222 
TABS,ioos:station:wmo:42051:1,2011-11-04T14:00:00Z,29.6350,-93.6417,2.0,28.7604,11111222 
TABS,ioos:station:wmo:42051:1,2011-11-04T14:30:00Z,29.6350,-93.6417,2.0,28.7612,11111222 
TABS,ioos:station:wmo:42051:1,2011-11-04T15:00:00Z,29.6350,-93.6417,2.0,28.7572,11111222 
TABS,ioos:station:wmo:42051:1,2011-11-04T15:30:00Z,29.6350,-93.6417,2.0,28.7572,11111222 
TABS,ioos:station:wmo:42051:1,2011-11-04T16:00:00Z,29.6350,-93.6417,2.0,28.7649,11111222 
TABS,ioos:station:wmo:42051:1,2011-11-04T16:30:00Z,29.6350,-93.6417,2.0,28.7665,11111222 
TABS,ioos:station:wmo:42051:1,2011-11-04T17:00:00Z,29.6350,-93.6417,2.0,28.7649,11111222 
TABS,ioos:station:wmo:42051:1,2011-11-04T17:30:00Z,29.6350,-93.6417,2.0,28.7642,11111222 
TABS,ioos:station:wmo:42051:1,2011-11-04T18:00:00Z,29.6350,-93.6417,2.0,28.7672,11111222 
TABS,ioos:station:wmo:42051:1,2011-11-04T18:30:00Z,29.6350,-93.6417,2.0,28.7706,11111222 
TABS,ioos:station:wmo:42051:1,2011-11-04T19:00:00Z,29.6350,-93.6417,2.0,28.7671,11111222 
TABS,ioos:station:wmo:42051:1,2011-11-04T19:30:00Z,29.6350,-93.6417,2.0,28.767,11111222 
TABS,ioos:station:wmo:42051:1,2011-11-04T20:00:00Z,29.6350,-93.6417,2.0,28.7643,11111222 
TABS,ioos:station:wmo:42051:1,2011-11-04T20:30:00Z,29.6350,-93.6417,2.0,28.7706,11111222 
TABS,ioos:station:wmo:42051:1,2011-11-04T21:00:00Z,29.6350,-93.6417,2.0,28.7533,11111222 
TABS,ioos:station:wmo:42051:1,2011-11-04T21:30:00Z,29.6350,-93.6417,2.0,28.7575,11111222 
TABS,ioos:station:wmo:42051:1,2011-11-04T22:00:00Z,29.6350,-93.6417,2.0,28.7186,11111222 
TABS,ioos:station:wmo:42051:1,2011-11-04T22:30:00Z,29.6350,-93.6417,2.0,28.6801,11111222 
TABS,ioos:station:wmo:42051:1,2011-11-04T23:00:00Z,29.6350,-93.6417,2.0,28.6686,11111222 
TABS,ioos:station:wmo:42051:1,2011-11-04T23:30:00Z,29.6350,-93.6417,2.0,28.6449,11111222 
TABS,ioos:station:wmo:42051:1,2011-11-05T00:00:00Z,29.6350,-93.6417,2.0,28.6126,11111222 
TABS,ioos:station:wmo:42051:1,2011-11-05T00:30:00Z,29.6350,-93.6417,2.0,28.6113,11111222 
TABS,ioos:station:wmo:42051:1,2011-11-05T01:00:00Z,29.6350,-93.6417,2.0,28.6167,11111222 
TABS,ioos:station:wmo:42051:1,2011-11-05T01:30:00Z,29.6350,-93.6417,2.0,28.6312,11111222 
TABS,ioos:station:wmo:42051:1,2011-11-05T02:00:00Z,29.6350,-93.6417,2.0,28.6396,11111222 
TABS,ioos:station:wmo:42051:1,2011-11-05T02:30:00Z,29.6350,-93.6417,2.0,28.6468,11111222 
TABS,ioos:station:wmo:42051:1,2011-11-05T03:00:00Z,29.6350,-93.6417,2.0,28.6435,11111222 
TABS,ioos:station:wmo:42051:1,2011-11-05T03:30:00Z,29.6350,-93.6417,2.0,28.6575,11111222 
TABS,ioos:station:wmo:42051:1,2011-11-05T04:00:00Z,29.6350,-93.6417,2.0,28.6586,11111222 
TABS,ioos:station:wmo:42051:1,2011-11-05T04:30:00Z,29.6350,-93.6417,2.0,28.6984,11111222 
TABS,ioos:station:wmo:42051:1,2011-11-05T05:00:00Z,29.6350,-93.6417,2.0,28.703,11111222 
TABS,ioos:station:wmo:42051:1,2011-11-05T05:30:00Z,29.6350,-93.6417,2.0,28.6929,11111222 
TABS,ioos:station:wmo:42051:1,2011-11-05T06:00:00Z,29.6350,-93.6417,2.0,28.6892,11111222 
TABS,ioos:station:wmo:42051:1,2011-11-05T06:30:00Z,29.6350,-93.6417,2.0,28.6863,11111222 
TABS,ioos:station:wmo:42051:1,2011-11-05T07:00:00Z,29.6350,-93.6417,2.0,28.7155,11111222 
TABS,ioos:station:wmo:42051:1,2011-11-05T07:30:00Z,29.6350,-93.6417,2.0,28.7247,11111222 
TABS,ioos:station:wmo:42051:1,2011-11-05T08:00:00Z,29.6350,-93.6417,2.0,28.7398,11111222 
TABS,ioos:station:wmo:42051:1,2011-11-05T08:30:00Z,29.6350,-93.6417,2.0,28.7497,11111222 
TABS,ioos:station:wmo:42051:1,2011-11-05T09:00:00Z,29.6350,-93.6417,2.0,28.7478,11111222 
TABS,ioos:station:wmo:42051:1,2011-11-05T09:30:00Z,29.6350,-93.6417,2.0,28.747,11111222 
TABS,ioos:station:wmo:42051:1,2011-11-05T10:00:00Z,29.6350,-93.6417,2.0,28.742,11111222 
TABS,ioos:station:wmo:42051:1,2011-11-05T10:30:00Z,29.6350,-93.6417,2.0,28.7333,11111222 
TABS,ioos:station:wmo:42051:1,2011-11-05T11:00:00Z,29.6350,-93.6417,2.0,28.7347,11111222 
TABS,ioos:station:wmo:42051:1,2011-11-05T11:30:00Z,29.6350,-93.6417,2.0,28.7454,11111222 
TABS,ioos:station:wmo:42051:1,2011-11-05T12:00:00Z,29.6350,-93.6417,2.0,28.7443,11111222 
TABS,ioos:station:wmo:42051:1,2011-11-05T12:30:00Z,29.6350,-93.6417,2.0,28.7411,11111222 
TABS,ioos:station:wmo:42051:1,2011-11-05T13:00:00Z,29.6350,-93.6417,2.0,28.7234,11111222 
TABS,ioos:station:wmo:42051:1,2011-11-05T13:30:00Z,29.6350,-93.6417,2.0,28.7177,11111222 
TABS,ioos:station:wmo:42051:1,2011-11-05T14:00:00Z,29.6350,-93.6417,2.0,28.7685,11111222 
TABS,ioos:station:wmo:42051:1,2011-11-05T14:30:00Z,29.6350,-93.6417,2.0,28.8206,11111222 
TABS,ioos:station:wmo:42051:1,2011-11-05T15:00:00Z,29.6350,-93.6417,2.0,28.8306,11111222 
TABS,ioos:station:wmo:42051:1,2011-11-05T15:30:00Z,29.6350,-93.6417,2.0,28.8355,11111222 
TABS,ioos:station:wmo:42051:1,2011-11-05T16:00:00Z,29.6350,-93.6417,2.0,28.8789,11111222 
TABS,ioos:station:wmo:42051:1,2011-11-05T16:30:00Z,29.6350,-93.6417,2.0,28.942,11111222 
TABS,ioos:station:wmo:42051:1,2011-11-05T17:00:00Z,29.6350,-93.6417,2.0,28.9573,11111222 
TABS,ioos:station:wmo:42051:1,2011-11-05T17:30:00Z,29.6350,-93.6417,2.0,28.9638,11111222 
TABS,ioos:station:wmo:42051:1,2011-11-05T18:00:00Z,29.6350,-93.6417,2.0,28.9811,11111222 
TABS,ioos:station:wmo:42051:1,2011-11-05T18:30:00Z,29.6350,-93.6417,2.0,28.993,11111222 
TABS,ioos:station:wmo:42051:1,2011-11-05T19:00:00Z,29.6350,-93.6417,2.0,29.0743,11111222 
TABS,ioos:station:wmo:42051:1,2011-11-05T19:30:00Z,29.6350,-93.6417,2.0,29.0815,11111222 
TABS,ioos:station:wmo:42051:1,2011-11-05T20:00:00Z,29.6350,-93.6417,2.0,29.1331,11111222 
TABS,ioos:station:wmo:42051:1,2011-11-05T20:30:00Z,29.6350,-93.6417,2.0,29.1077,11111222 
TABS,ioos:station:wmo:42051:1,2011-11-05T21:00:00Z,29.6350,-93.6417,2.0,29.0882,11111222 
TABS,ioos:station:wmo:42051:1,2011-11-05T21:30:00Z,29.6350,-93.6417,2.0,29.0956,11111222 
TABS,ioos:station:wmo:42051:1,2011-11-05T22:00:00Z,29.6350,-93.6417,2.0,29.1057,11111222 
TABS,ioos:station:wmo:42051:1,2011-11-05T22:30:00Z,29.6350,-93.6417,2.0,29.1211,11111222 
TABS,ioos:station:wmo:42051:1,2011-11-05T23:00:00Z,29.6350,-93.6417,2.0,29.2221,11111222 
TABS,ioos:station:wmo:42051:1,2011-11-05T23:30:00Z,29.6350,-93.6417,2.0,29.3259,11111222 
TABS,ioos:station:wmo:42051:1,2011-11-06T00:00:00Z,29.6350,-93.6417,2.0,29.3933,11111222 
TABS,ioos:station:wmo:42051:1,2011-11-06T00:30:00Z,29.6350,-93.6417,2.0,29.4605,11111222 
TABS,ioos:station:wmo:42051:1,2011-11-06T01:00:00Z,29.6350,-93.6417,2.0,29.5429,11111222 
TABS,ioos:station:wmo:42051:1,2011-11-06T01:30:00Z,29.6350,-93.6417,2.0,29.5752,11111222 
TABS,ioos:station:wmo:42051:1,2011-11-06T02:00:00Z,29.6350,-93.6417,2.0,29.6165,11111222 
TABS,ioos:station:wmo:42051:1,2011-11-06T02:30:00Z,29.6350,-93.6417,2.0,29.623,11111222 
TABS,ioos:station:wmo:42051:1,2011-11-06T03:00:00Z,29.6350,-93.6417,2.0,29.7583,11111222 
TABS,ioos:station:wmo:42051:1,2011-11-06T03:30:00Z,29.6350,-93.6417,2.0,29.8047,11111222 
TABS,ioos:station:wmo:42051:1,2011-11-06T04:00:00Z,29.6350,-93.6417,2.0,29.8507,11111222 
TABS,ioos:station:wmo:42051:1,2011-11-06T04:30:00Z,29.6350,-93.6417,2.0,29.9384,11111222 
TABS,ioos:station:wmo:42051:1,2011-11-06T05:00:00Z,29.6350,-93.6417,2.0,29.9883,11111222 
TABS,ioos:station:wmo:42051:1,2011-11-06T05:30:00Z,29.6350,-93.6417,2.0,30.0748,11111222 
TABS,ioos:station:wmo:42051:1,2011-11-06T06:00:00Z,29.6350,-93.6417,2.0,30.0993,11111222 
TABS,ioos:station:wmo:42051:1,2011-11-06T06:30:00Z,29.6350,-93.6417,2.0,30.068,11111222 
TABS,ioos:station:wmo:42051:1,2011-11-06T07:00:00Z,29.6350,-93.6417,2.0,30.1067,11111222 
TABS,ioos:station:wmo:42051:1,2011-11-06T07:30:00Z,29.6350,-93.6417,2.0,30.1337,11111222 
TABS,ioos:station:wmo:42051:1,2011-11-06T08:00:00Z,29.6350,-93.6417,2.0,30.2261,11111222 
TABS,ioos:station:wmo:42051:1,2011-11-06T08:30:00Z,29.6350,-93.6417,2.0,30.2847,11111222 
TABS,ioos:station:wmo:42051:1,2011-11-06T09:00:00Z,29.6350,-93.6417,2.0,30.362,11111222 
TABS,ioos:station:wmo:42051:1,2011-11-06T09:30:00Z,29.6350,-93.6417,2.0,30.3665,11111222 
TABS,ioos:station:wmo:42051:1,2011-11-06T10:00:00Z,29.6350,-93.6417,2.0,30.3648,11111222 
TABS,ioos:station:wmo:42051:1,2011-11-06T10:30:00Z,29.6350,-93.6417,2.0,30.3616,11111222 
TABS,ioos:station:wmo:42051:1,2011-11-06T11:00:00Z,29.6350,-93.6417,2.0,30.3508,11111222 
TABS,ioos:station:wmo:42051:1,2011-11-06T11:30:00Z,29.6350,-93.6417,2.0,30.3403,11111222 
TABS,ioos:station:wmo:42051:1,2011-11-06T12:00:00Z,29.6350,-93.6417,2.0,30.3337,11111222 
TABS,ioos:station:wmo:42051:1,2011-11-06T12:30:00Z,29.6350,-93.6417,2.0,30.3281,11111222 